Please be sure to check the latest weather conditions by clicking the link and viewing our local weather information!

Check Weather

Welcome to Lakeway Airpark (3R9)

FromTheAir

We’re a community airpark nestled within the town of Lakeway, Texas (17 miles northwest of downtown Austin).

Lakeway Airpark, Inc. was formed by Lakeway residents and interested parties to own and manage Lakeway Airpark (3R9).

The Airpark is a privately owned not for profit public use airport for residents and guests of Lakeway. No public funds are used and the airport is supported by fees and fuel sales at the airport.

Lakeway Airpark is an unmanned facility open for use from Sunrise to Sunset seven days a week. Takeoffs and landings are not permitted at night, between Sunset and Sunrise, by City Ordinance.

Quick Weather Info

Available data for KAUS from the past 2 hours
AUSTIN, TX
Metar
KAUS 261153Z 00000KT 10SM SCT006 SCT025 BKN250 24/23 A2988 RMK AO2 SLP108 70002 T02390228 10244 20233 53003

11:53 UTC

Wind: 0° 0kt

Visibility: 10 SM

Sky: SCT 600 ft

Temp: 24 deg C / 75.2 deg F

Dewpoint: 23 deg C / 73.4 deg F

Pressure: 29.88 inHg

TAF
KAUS 261131Z 2612/2718 10005KT P6SM FEW015 SCT025 BKN250 FM261300 10005KT P6SM BKN015 OVC025 FM261800 12008KT P6SM VCSH SCT030 BKN050 FM270000 04005KT P6SM OVC050